Volver al catálogo

STARLINK-5117

ActivoComunicacionesVLEO
NORAD 54172·PAYLOAD·🇺🇸 United States

Lanzado Oct 28, 2022 desde Vandenberg Space Force Base

Loading…

Próximos Pases (próximas 24 horas)

TLE

ActualizadoSource: CelesTrak SupGP

Época: Sep 14, 2026, 21:06 UTC

1 54172C 22141R   26257.87965278  .00025639  00000+0  77688-3 0  2573
2 54172  53.1568 220.2834 0001390 107.7453  17.2233 15.33580719    11

Sigue STARLINK-5117 en tiempo real con AllMySat

Download on the App Store